Location: Bli��� Lhota
(48.7570°N, 14.0120°E)
Time: 08:36:17
(UTC+00:00)

Cosmos 990 Rocket - Pass Details

Date: 18 September 2020
Orbit: 746 x 769 km, 74.0° (Epoch: 27 October)

Event Time Altitude Azimuth Distance (km) Brightness Sun altitude
Rises 17:57:43 0° 203° (SSW) 3,179 7.3 -8.7°
Reaches altitude 10° 18:00:04 10° 204° (SSW) 2,258 6.6 -9.1°
Maximum altitude 18:05:11 84° 292° (WNW) 758 4.1 -9.9°
Drops below altitude 10° 18:10:22 10° 22° (NNE) 2,277 6.4 -10.7°
Sets 18:12:44 0° 23° (NNE) 3,208 7.1 -11.1°
